星链-34734(STARLINK-34734)

导读 | 豆包AI

STARLINK-34734是美国SpaceX星链卫星互联网项目的卫星,于2025年9月21日发射升空,归属美国所有。作为星链星座组网的组成单元,它延续星链低轨卫星设计,运行于近地轨道,主要承担全球宽带互联网覆盖任务,为地面偏远区域、移动载体提供高速网络接入服务,支撑星链系统全球组网与服务能力拓展。

基本信息
目录编号:
65696
目录名称:
STARLINK-34734
国际标识:
2025-212W
轨道中心:
EARTH
卫星名称:
星链-34734
卫星全名:
星链-34734(STARLINK-34734)
卫星状态:
在轨 (已飞行220 天)
发射日期:
2025-09-21 UTC
国别 :
美国 (US)
星等 :
--
轨道信息
数据来源 国际轨道数据
星历时间: 2026-04-29T11:41:44+0800
7小时前
查看轨道信息
半长轴: 6853.346km
偏心率: 0.0001746
轨道倾角: 53.160°
近地点辐角 92.954°
升交点赤经 110.996°
平近点角 267.166°
近地点: 474.012km
远地点: 476.406km
周期: 94.105分钟
每日圈数: 15.302021
详细信息
固有亮度:
5
最大亮度:
2.5
卫星平台:
Starlink V1.0
覆盖范围:
全球
运营商:
太空探索技术公司
运营商所在国:
美国
制造商(研发单位):
太空探索技术公司
制造商所在国:
美国
使用方式:
暂无
卫星简介
Starlink 计划是 SpaceX 推出的全球卫星互联网项目,通过发射低轨道卫星,为全球尤其是偏远地区提供高速、低延迟的互联网服务。自 2019 年起,Starlink 已部署数千颗卫星,旨在缩小全球数字鸿沟,推动互联网普及。该项目还为军事、航空等行业提供通信支持,带来广泛经济效益。
2D轨道图
3D轨道图
轨道高度分析图
轨道倾角分析图
轨道综合分析图
查看轨道综合分析图